Airfield :
LOGIN :

Register | Disclaimer

   EN    FR    IT 

 










Legend :    VFR   Marginal VFR   IFR   Intensive IFR   Very Intensive IFR
Visi :
Ceiling :
>= 8 km
>= 3000ft
5 to 8 km
1000 to 3000 ft
1500m to 5 km
500 to 1000 ft
800 to 1500m
200 to 500 ft
< 800m
< 200 ft
Symbols :   Thunderstorms  Fog  Heavy snow  Heavy precipitations  Wind > 20 kt
SIGMETs :     Misc.  Thunderstorms  Icing  Turbulence  Mountain Waves  Volcanic Ashes







- Airport Elevation : 53 ft
- IATA code : HAM


EDDH - Hamburg

CURRENT METAR :
  • 132150Z 05005KT CAVOK 02/00 Q1025 NOSIG

EXPIRED METARs :
  • 132120Z 04006KT 9999 FEW008 02/00 Q1025 NOSIG
  • 132050Z 03005KT 9999 FEW042 02/M00 Q1025 NOSIG
  • 132020Z 05006KT 9999 FEW043 02/M00 Q1025 TEMPO BKN010
  • 131950Z 04005KT 9999 FEW010 02/00 Q1025 TEMPO BKN010
  • 131920Z 05005KT 9999 FEW013 02/00 Q1025 TEMPO BKN010

TAF TAF EDDH
Valid from the 13 at 18:00 until the 15 at 00:00 UTC


131700Z 1318/1424 07007KT 9999 BKN020
TEMPO 1318/1420 BKN012
PROB30
TEMPO 1318/1412 BKN008
No reported NOTAMs for that airfield.



MET'MAP, your aeronautical weather chart ! - Copyright ORBIFLY December 2007 - Disclaimer

ORBIFLY MET'MAP TEAM :

Programming & Development : Alexandra Zaïnal
Concept & Development : Baudouin d'Aumeries
Co-Development & Prog : Marc-Olivier Méhu
Technical & hardware support : Manuel Goepfert

Contact : metmap@orbifly.com




SOURCES & CREDITS :

   NOAA